Walla Walla, WA
on Friday, December 21, 2012

Friday
Previous Day Next Day
Daily Summary
 ActualAverage (KPDT)Record (KPDT)
Temperature
Mean Temperature °F 32°F  
Max Temperature 50°F 39°F 68°F (1933)
Min Temperature 37°F 26°F -16°F (1990)
Degree Days
Heating Degree Days 22 33  
Month to date heating degree days 661  
Since 1 July heating degree days 1914  
Cooling Degree Days 0 0  
Month to date cooling degree days 0  
Year to date cooling degree days 636  
Moisture
Dew Point 32°F   
Average Humidity 67    
Maximum Humidity 86    
Minimum Humidity 39    
Precipitation
Precipitation 0.02 in 0.05 in 0.43 in (2008)
Month to date precipitation 1.01  
Year to date precipitation 12.20  
Snow
Snow 0.00 in 0.30 in 3.00 in (1938)
Month to date snowfall 3.9  
Year to date snowfall 13.1  
Since 1 July snowfall 5.4  
Snow Depth in   
Wind
Wind Speed 7 mph   
Max Wind Speed 18 mph   
Max Gust Speed 24 mph   
Visibility 10 miles   
Events Rain   

Key: T is trace of precipitation, MM is missing value
Source: NWS Daily Summary
Time(PST)TemperatureDew PointHumidity Pressure Visibility Wind DirectionWind SpeedGust SpeedPrecipitationEvents Conditions
12:53 AM 37.9°F 34.0°F 86% 29.88 in 10.0 miles North 4.6 mph - N/A   Overcast
1:53 AM 37.9°F 34.0°F 86% 29.89 in 10.0 miles ENE 3.5 mph - N/A   Overcast
2:53 AM 37.0°F 33.1°F 86% 29.90 in 10.0 miles ENE 3.5 mph - N/A   Overcast
3:53 AM 37.0°F 33.1°F 86% 29.88 in 10.0 miles East 4.6 mph - N/A   Overcast
4:53 AM 39.0°F 33.1°F 79% 29.87 in 10.0 miles East 8.1 mph - N/A   Overcast
5:53 AM 39.0°F 33.1°F 79% 29.84 in 10.0 miles East 5.8 mph - N/A   Mostly Cloudy
6:53 AM 37.0°F 32.0°F 82% 29.86 in 10.0 miles WNW 3.5 mph - N/A   Overcast
7:53 AM 46.0°F 28.9°F 51% 29.87 in 10.0 miles SSE 15.0 mph 21.9 mph N/A   Overcast
8:53 AM 44.1°F 32.0°F 63% 29.89 in 9.0 miles SSE 11.5 mph - 0.00 in Rain Light Rain
9:53 AM 45.0°F 33.1°F 63% 29.87 in 10.0 miles East 9.2 mph - 0.00 in   Overcast
10:51 AM 48.2°F 28.4°F 46% 29.83 in 10.0 miles South 12.7 mph 19.6 mph N/A   Overcast
10:53 AM 50.0°F 28.0°F 43% 29.85 in 10.0 miles SSW 16.1 mph 21.9 mph N/A   Overcast
11:53 AM 48.9°F 25.0°F 39% 29.83 in 10.0 miles SSW 11.5 mph - N/A   Overcast
12:53 PM 46.0°F 37.9°F 73% 29.82 in 10.0 miles WSW 4.6 mph - N/A   Overcast
1:53 PM 46.0°F 35.1°F 66% 29.82 in 10.0 miles Calm Calm - N/A   Overcast
2:53 PM 45.0°F 37.0°F 74% 29.81 in 10.0 miles North 5.8 mph - N/A   Overcast
3:53 PM 48.0°F 28.9°F 48% 29.79 in 10.0 miles NW 3.5 mph - N/A   Scattered Clouds
4:53 PM 44.1°F 30.0°F 58% 29.78 in 10.0 miles WNW 5.8 mph - N/A   Mostly Cloudy
5:53 PM 39.9°F 36.0°F 86% 29.80 in 10.0 miles NW 8.1 mph - N/A   Overcast
6:53 PM 42.1°F 34.0°F 73% 29.81 in 7.0 miles Variable 3.5 mph - 0.01 in Rain Light Rain
7:53 PM 41.0°F 36.0°F 82% 29.77 in 10.0 miles North 4.6 mph - 0.01 in   Overcast
8:53 PM 41.0°F 34.0°F 76% 29.77 in 10.0 miles ESE 4.6 mph - N/A   Partly Cloudy
9:53 PM 42.1°F 32.0°F 67% 29.77 in 10.0 miles SW 9.2 mph - N/A   Clear
10:53 PM 48.0°F 26.1°F 42% 29.75 in 10.0 miles SSW 9.2 mph - N/A   Partly Cloudy
11:53 PM 50.0°F 26.1°F 39% 29.73 in 10.0 miles SSE 18.4 mph 24.2 mph N/A   Mostly Cloudy
Moon Phase
Dec. 21 Dec. 28 Jan. 04 Jan. 11 Jan. 18
Sunrise:07:32 AM (PST) Moon Rise:12:12 PM (PST)12/21
Sunset:04:10 PM (PST) Moon Set:01:10 AM (PST)12/21

Copyright © 2014 The Weather Underground, Inc.